TimePST,TemperatureF,Dew PointF,Humidity,Sea Level PressureIn,VisibilityMPH,Wind Direction,Wind SpeedMPH,Gust SpeedMPH,PrecipitationIn,Events,Conditions,WindDirDegrees,DateUTC
12:04 AM,51.8,51.8,100,30.05,2.0,Calm,Calm,-,N/A,,Overcast,0,2013-02-04 08:04:00
12:11 AM,51.8,51.8,100,30.05,1.5,Calm,Calm,-,N/A,,Overcast,0,2013-02-04 08:11:00
12:22 AM,51.8,51.8,100,30.05,0.8,Calm,Calm,-,N/A,,Mist,0,2013-02-04 08:22:00
12:53 AM,48.9,48.9,100,30.04,0.2,Calm,Calm,-,N/A,Fog,Fog,0,2013-02-04 08:53:00
1:00 AM,48.2,48.2,100,30.05,0.2,Calm,Calm,-,N/A,Fog,Fog,0,2013-02-04 09:00:00
1:15 AM,48.2,48.2,100,30.05,1.2,Calm,Calm,-,N/A,,Scattered Clouds,0,2013-02-04 09:15:00
1:21 AM,50.0,48.2,94,30.05,0.8,Calm,Calm,-,N/A,,Mist,0,2013-02-04 09:21:00
1:28 AM,51.8,50.0,94,30.05,0.5,Calm,Calm,-,N/A,Fog,Fog,0,2013-02-04 09:28:00
2:53 AM,50.0,48.2,94,30.05,4.0,Calm,Calm,-,N/A,,Mostly Cloudy,0,2013-02-04 10:53:00
3:35 AM,48.2,46.4,93,30.04,10.0,Calm,Calm,-,N/A,,Partly Cloudy,0,2013-02-04 11:35:00
3:53 AM,46.9,46.9,100,30.04,10.0,Calm,Calm,-,N/A,,Clear,0,2013-02-04 11:53:00
4:50 AM,44.6,44.6,100,30.04,1.0,South,3.5,-,N/A,,Mist,180,2013-02-04 12:50:00
4:53 AM,45.0,44.1,97,30.04,0.2,South,3.5,-,N/A,Fog,Fog,170,2013-02-04 12:53:00
5:28 AM,48.2,48.2,100,30.04,1.5,Calm,Calm,-,N/A,,Scattered Clouds,0,2013-02-04 13:28:00
5:30 AM,48.2,48.2,100,30.04,3.0,Calm,Calm,-,N/A,,Scattered Clouds,0,2013-02-04 13:30:00
5:53 AM,46.0,45.0,96,30.04,10.0,ENE,3.5,-,N/A,,Clear,60,2013-02-04 13:53:00
6:53 AM,46.9,46.9,100,30.06,3.0,Calm,Calm,-,N/A,,Clear,0,2013-02-04 14:53:00
7:53 AM,51.1,48.9,92,30.07,10.0,SE,4.6,-,N/A,,Clear,130,2013-02-04 15:53:00
8:53 AM,57.0,50.0,77,30.08,7.0,SSE,4.6,-,N/A,,Clear,150,2013-02-04 16:53:00
9:53 AM,57.9,51.1,78,30.09,6.0,NW,5.8,-,N/A,,Haze,310,2013-02-04 17:53:00
10:53 AM,57.0,52.0,83,30.09,4.0,WNW,5.8,-,N/A,,Haze,290,2013-02-04 18:53:00
11:53 AM,60.1,53.1,78,30.06,5.0,WNW,4.6,-,N/A,,Haze,300,2013-02-04 19:53:00
12:53 PM,60.1,53.1,78,30.04,8.0,West,9.2,-,N/A,,Clear,280,2013-02-04 20:53:00
1:53 PM,60.1,53.1,78,30.01,9.0,North,-9999.0,-,N/A,,Clear,0,2013-02-04 21:53:00
2:53 PM,59.0,53.1,81,30.00,10.0,North,-9999.0,-,N/A,,Clear,0,2013-02-04 22:53:00
3:53 PM,55.9,52.0,87,30.00,9.0,North,-9999.0,-,N/A,,Clear,0,2013-02-04 23:53:00
4:00 PM,55.4,51.8,88,30.01,8.0,WNW,6.9,69.0,N/A,,Partly Cloudy,290,2013-02-05 00:00:00
4:22 PM,55.4,51.8,88,30.00,7.0,WNW,9.2,-,N/A,,Mostly Cloudy,300,2013-02-05 00:22:00
4:53 PM,54.0,52.0,93,30.01,6.0,WNW,5.8,-,N/A,,Overcast,290,2013-02-05 00:53:00
5:18 PM,53.6,51.8,94,30.02,5.0,WNW,4.6,-,N/A,,Mostly Cloudy,290,2013-02-05 01:18:00
5:39 PM,53.6,51.8,94,30.02,5.0,Calm,Calm,-,N/A,,Scattered Clouds,0,2013-02-05 01:39:00
5:53 PM,53.1,52.0,96,30.02,6.0,Calm,Calm,-,N/A,,Clear,0,2013-02-05 01:53:00
6:53 PM,52.0,51.1,97,30.03,6.0,Calm,Calm,-,N/A,,Clear,0,2013-02-05 02:53:00
7:45 PM,51.8,50.0,94,30.05,5.0,West,5.8,-,N/A,,Scattered Clouds,270,2013-02-05 03:45:00
7:53 PM,51.1,48.9,92,30.05,5.0,West,6.9,-,N/A,,Mostly Cloudy,260,2013-02-05 03:53:00
8:06 PM,51.8,50.0,94,30.06,4.0,WSW,6.9,-,N/A,,Overcast,250,2013-02-05 04:06:00
8:53 PM,52.0,52.0,100,30.08,4.0,West,3.5,-,N/A,,Overcast,270,2013-02-05 04:53:00
9:53 PM,52.0,52.0,100,30.09,4.0,West,4.6,-,N/A,,Overcast,260,2013-02-05 05:53:00
10:53 PM,52.0,52.0,100,30.09,5.0,Calm,Calm,-,N/A,,Overcast,0,2013-02-05 06:53:00
11:53 PM,53.1,52.0,96,30.08,5.0,Calm,Calm,-,N/A,,Overcast,0,2013-02-05 07:53:00